Regional Weather Roundup
Issued by NWS

Home | Current Version | Previous Version | Text Only | Print | Product List | Glossary On
Versions: 1 2 3 4 5 6 7 8 9 10 11 12 13 14 15 16 17 18 19 20 21 22 23 24 25 26 27 28 29 30 31 32 33 34 35 36 37 38 39 40 41 42 43 44 45 46 47 48 49 50
000
ASUS43 KLOT 032310
RWRIL

ILLINOIS REGIONAL WEATHER ROUNDUP
NATIONAL WEATHER SERVICE CHICAGO/ROMEOVILLE IL
500 PM CST TUE MAR 03 2015

NOTE: "FAIR" INDICATES FEW OR NO CLOUDS BELOW 12,000 FEET WITH NO
SIGNIFICANT WEATHER AND/OR OBSTRUCTIONS TO VISIBILITY.

* THESE STATIONS ARE NOT UNDER NWS QUALITY CONTROL. THEY ALSO MAY NOT
  REPORT WEATHER SUCH AS PRECIPITATION OR FOG.

ILZ001-002-007-009-015-016-024-040000-
NORTHWEST ILLINOIS

CITY           SKY/WX    TMP DP  RH WIND       PRES   REMARKS
MOLINE         CLOUDY    34  28  79 W9        29.78R WCI  27
STERLING*      CLOUDY    34  30  86 W12       29.74R WCI  25
SAVANNA*       CLOUDY    34  25  71 W15       29.74R WCI  24
$$

ILZ003-004-008-010-011-017-018-040000-
NORTH CENTRAL ILLINOIS

CITY           SKY/WX    TMP DP  RH WIND       PRES   REMARKS
ROCKFORD       CLOUDY    33  27  78 W13       29.71R WCI  24
FREEPORT*      CLOUDY    32  27  81 W8        29.72R WCI  25
ROCHELLE*      CLOUDY    32  30  90 W13       29.72R WCI  23
DE KALB*       CLOUDY    32  29  90 W12       29.70S WCI  23
PERU*          CLOUDY    36  31  85 W10G18    29.75R WCI  28
$$

ILZ005-006-012>014-019>023-040000-
NORTHEAST ILLINOIS

CITY           SKY/WX    TMP DP  RH WIND       PRES   REMARKS
CHICAGO-OHARE  CLOUDY    34  29  82 W14       29.69R WCI  25
CHICAGO-MIDWAY CLOUDY    36  30  79 W17G23    29.70R WCI  26
AURORA         CLOUDY    34  29  82 W17       29.71R WCI  23
LANSING*       CLOUDY    35  31  86 W14G24    29.71S WCI  26
JOLIET*        CLOUDY    34  31  87 W6        29.73R WCI  29
WAUKEGAN       CLOUDY    33  28  81 W10G18    29.67R WCI  25
DUPAGE AIRPORT CLOUDY    34  29  82 W14       29.69S WCI  25
KANKAKEE*      CLOUDY    35  32  91 W12       29.74F WCI  26
WHEELING       CLOUDY    34  29  82 W12       29.70R WCI  25
MORRIS*        CLOUDY    35  32  91 W14       29.71F WCI  25
ROMEOVILLE*    CLOUDY    34  31  90 W13       29.72R WCI  25
NORTHERLY ISL    N/A     35  30  82 W10         N/A  WCI  27
$$

LMZ740>746-040000-
SOUTHERN LAKE MICHIGAN

STATION/POSITION SKY/WX   TEMP    WIND        PRES    VSBY  WAVE
                          AIR SEA DIR/SP/G                  HT/PER
                          (F)     (DEG/KT/KT) (MB)    (MI)  (FT/S)
WAUKEGAN HARBOR            34                   N/A
HARRISON CRIB              35     270/ 21/ 26   N/A
BURNHAM HARBOR             35     250/  9/ 15   N/A
CALUMET HARBOR             35     250/  9/ 15 1005.0R
MICHIGAN CITY              34     240/ 14/ 17   N/A
$$

ILZ025>027-034>036-040-047-049-050-058-095>099-040000-
WEST-CENTRAL ILLINOIS

CITY           SKY/WX    TMP DP  RH WIND       PRES   REMARKS
QUINCY         CLOUDY    36  34  92 NW8       29.82R FOG     WCI  30
GALESBURG*     CLOUDY    34  31  89 W14       29.80R WCI  25
MACOMB*        CLOUDY    35  32  90 W10       29.84R WCI  27
JACKSONVILLE*  CLOUDY    38  36  92 NW9       29.82R FOG     WCI  32
PITTSFIELD*    CLOUDY    40  38  93 W9        29.83S FOG
$$

ILZ028>032-037-038-041>044-048-051>054-059>061-040000-
CENTRAL ILLINOIS

CITY           SKY/WX    TMP DP  RH WIND       PRES   REMARKS
PONTIAC        CLOUDY    35  34  94 W9        29.74F WCI  28
BLOOMINGTON    CLOUDY    36  35  96 W13       29.78R FOG     WCI  27
DECATUR        CLOUDY    39  37  92 W9        29.81R FOG     WCI  33
PEORIA         CLOUDY    38  32  79 W10       29.79S WCI  31
LACON*         CLOUDY    35  31  85 W8        29.78R WCI  28
LINCOLN*       CLOUDY    39  36  91 W6        29.81R WCI  35
SPRINGFIELD    CLOUDY    37  35  92 W10       29.82R FOG     WCI  30
TAYLORVILLE    CLOUDY    37  36  93 W10       29.82R FOG     WCI  30
$$

ILZ033-039-045-046-055>057-062-063-040000-
EAST-CENTRAL ILLINOIS

CITY           SKY/WX    TMP DP  RH WIND       PRES   REMARKS
CHAMPAIGN      CLOUDY    36  34  92 W12       29.78R FOG     WCI  28
DANVILLE*      CLOUDY    37  35  94 W14G22    29.76R FOG     WCI  28
RANTOUL*       CLOUDY    38  36  93 W13       29.77S FOG     WCI  30
MATTOON        CLOUDY    39  38  96 W7        29.80R FOG     WCI  34
PARIS*         RAIN      38  37  98 W12       29.82R WCI  30
$$

ILZ079-100>102-040000-
SOUTHWEST ILLINOIS

CITY           SKY/WX    TMP DP  RH WIND       PRES   REMARKS
ALTON          CLOUDY    39  39 100 W7        29.82F WCI  34
BELLEVILLE     FOG       39  39 100 SE2       29.82R VSB<1/4
CAHOKIA*       CLOUDY    44  43  96 NW5       29.82F
SPARTA*        DRZL/FOG  42  41  97 CALM      29.84R VSB 1/4
$$

ILZ064>066-069>071-074>076-080>082-084>086-088>090-092>094-040000-
SOUTH-CENTRAL ILLINOIS

CITY           SKY/WX    TMP DP  RH WIND       PRES   REMARKS
CARBONDALE     CLOUDY    44  42  93 SW8       29.86R FOG
CAIRO*         DRZL/FOG N/A N/A N/A W5        29.87R VSB 1/4
EFFINGHAM*     CLOUDY    40  38  92 SW5       29.84R FOG
MARION         CLOUDY    45  43  93 SW12      29.86R FOG
MT. VERNON     CLOUDY    43  39  87 SW7       29.84R VSB 1/2
CENTRALIA*     LGT RAIN  39  37  94 W6        29.83S VSB 1/4 WCI  34
SALEM*         LGT RAIN  41  39  94 W3        29.83S VSB<1/4
METROPOLIS*    RAIN      51  51 100 W5        29.85S
$$

ILZ067-068-072-073-078-083-087-091-040000-
SOUTHEAST ILLINOIS

CITY           SKY/WX    TMP DP  RH WIND       PRES   REMARKS
LAWRENCEVILLE  CLOUDY    41  40  96 W8        29.83R
FLORA*         RAIN      41  41 100 W6        29.84R VSB 1/2
FAIRFIELD*     DRZL/FOG  44  43  97 SW7       29.83R VSB 1
HARRISBURG*    CLOUDY    45  45 100 SW8       29.87R FOG
ROBINSON*      FOG       38  38  99 W8        29.85R VSB 1/4 WCI  33
CARMI*         CLOUDY    47  46  97 SW14      29.85R
$$

ABBREVIATIONS USED IN REMARKS
   TC - TEMPERATURE IN CELSIUS
  WCI - WIND CHILL INDEX
   HX - HEAT INDEX
  VSB - VISIBILITY
$$



USA.gov is the U.S. government's official web portal to all federal, state and local government web resources and services.